Location: Ariel
(45.9570°N, 122.5700°W)
Time: 21:17:39
(UTC-07:00)

Transit 4A - Pass Details

Date: 20 July 2019
Orbit: 863 x 981 km, 66.8° (Epoch: 20 August)

Event Time Altitude Azimuth Distance (km) Brightness Sun altitude
Rises 04:21:57 0° 244° (WSW) 3,656 - -11.3°
Exits shadow 04:24:38 10° 253° (WSW) 2,763 9.8 -11.0°
Reaches altitude 10° 04:24:46 10° 254° (WSW) 2,721 9.8 -10.9°
Maximum altitude 04:30:30 34° 318° (NW) 1,570 9.1 -10.2°
Drops below altitude 10° 04:36:16 10° 21° (NNE) 2,740 11.5 -9.5°
Sets 04:39:08 0° 31° (NNE) 3,684 12.8 -9.2°
